sat.trackr.live / text

‹ back to catalog

STARLINK-11547 [DTC]

NORAD 62587 · 2025-008A

PAYLOAD ACTIVE UNKNOWN

§ Identity

Operator
Country
US
Launch date
2025-01-13
Launch site
AFETR
Launch vehicle
Mass (kg)
RCS (m²)

Purposes: comms

External: N2YO · Heavens-Above · Gunter

§ Orbital elements

Epoch: 2026-09-21T15:56:17.328480Z

Period
91.67 min
Inclination
43.0025°
Eccentricity
0.0002585
Mean motion
15.70853552 rev/d
Perigee alt
354.7 km
Apogee alt
358.2 km
Semi-major
6,734.6 km
B*
9.8651e-4
RAAN
25.1022°
Arg perigee
276.7253°
Mean anomaly
83.3320°
Rev number
9,693

§ Raw data

STARLINK-11547 [DTC]1 62587U 25008A   26264.66408945  .00128186  00000+0  98651-3 0  99922 62587  43.0025  25.1022 0002585 276.7253  83.3320 15.70853552 96935

JSON: /api/v1/satellites/62587 · /tle

For live sub-satellite position, see the globe view (requires WebGL).

§ Visibility from observer

Set your observer location to see the next 7 days of passes ≥ 10°. The values pass through the URL so the page stays shareable.

No JS? Fill the form by hand. The geolocation button needs JavaScript.